Вернуться в каталог

COSMOS 2251 DEB

АктивенLEO
NORAD 35065·DEBRIS·🇷🇺 Russia

Запущен Jun 16, 1993 с Plesetsk Cosmodrome

Loading…

Ближайшие Пролёты (ближайшие 24 часа)

TLE

УстаревающийSource: Space-Track

Эпоха: Sep 9, 2026, 04:02 UTC

1 35065U 93036AHU 26252.16849723  .00000847  00000-0  24251-3 0  9993
2 35065  74.0191  49.1646 0018841 111.2126 249.1048 14.46431167722601

Отслеживайте COSMOS 2251 DEB в реальном времени с AllMySat

Download on the App Store